Time,TemperatureF,DewpointF,PressureIn,WindDirection,WindDirectionDegrees,WindSpeedMPH,WindSpeedGustMPH,Humidity,HourlyPrecipIn,Conditions,Clouds,dailyrainin,SolarRadiationWatts/m^2,SoftwareType,DateUTC
2013-10-06 00:01:00,41.8,40.0,29.80,NNW,345,0.0,0.0,91,0.00,,,0.00,0,Custom,2013-10-06 05:01:00,
2013-10-06 00:06:00,41.7,39.0,29.80,North,350,0.0,0.0,91,0.00,,,0.00,0,Custom,2013-10-06 05:06:00,
2013-10-06 00:11:00,41.9,40.0,29.80,North,349,0.0,0.0,92,0.00,,,0.00,0,Custom,2013-10-06 05:11:00,
2013-10-06 00:16:00,41.7,39.0,29.79,North,349,0.0,0.0,91,0.00,,,0.00,0,Custom,2013-10-06 05:16:00,
2013-10-06 00:21:00,41.4,39.0,29.79,North,349,0.0,0.0,92,0.00,,,0.00,0,Custom,2013-10-06 05:21:00,
2013-10-06 00:26:00,41.4,39.0,29.79,NNW,337,0.0,0.0,92,0.00,,,0.00,0,Custom,2013-10-06 05:26:00,
2013-10-06 00:31:00,41.4,39.0,29.79,North,349,0.0,0.0,92,0.00,,,0.00,0,Custom,2013-10-06 05:31:00,
2013-10-06 00:36:00,41.0,39.0,29.79,North,349,0.0,0.0,91,0.00,,,0.00,0,Custom,2013-10-06 05:36:00,
2013-10-06 00:41:00,41.1,39.0,29.78,North,350,0.0,0.0,92,0.00,,,0.00,0,Custom,2013-10-06 05:41:00,
2013-10-06 00:46:00,41.1,39.0,29.78,North,350,0.0,0.0,92,0.00,,,0.00,0,Custom,2013-10-06 05:46:00,
2013-10-06 00:51:00,40.9,38.0,29.78,North,349,0.0,0.0,91,0.00,,,0.00,0,Custom,2013-10-06 05:51:00,
2013-10-06 00:56:00,40.9,38.0,29.78,North,349,0.0,0.0,91,0.00,,,0.00,0,Custom,2013-10-06 05:56:00,
2013-10-06 01:01:00,40.7,38.0,29.78,North,351,0.0,0.0,91,0.00,,,0.00,0,Custom,2013-10-06 06:01:00,
2013-10-06 01:06:00,40.7,38.0,29.78,North,350,0.0,0.0,91,0.00,,,0.00,0,Custom,2013-10-06 06:06:00,
2013-10-06 01:11:00,40.8,38.0,29.78,NNW,343,0.0,0.0,91,0.00,,,0.00,0,Custom,2013-10-06 06:11:00,
2013-10-06 01:16:00,41.1,39.0,29.78,NNW,344,0.0,0.0,91,0.00,,,0.00,0,Custom,2013-10-06 06:16:00,
2013-10-06 01:21:00,41.9,39.0,29.78,NNW,344,0.0,0.0,91,0.00,,,0.00,0,Custom,2013-10-06 06:21:00,
2013-10-06 01:26:00,42.1,39.0,29.78,NNW,343,0.0,0.0,90,0.00,,,0.00,0,Custom,2013-10-06 06:26:00,
2013-10-06 01:31:00,42.2,39.0,29.79,NNW,342,0.0,0.0,88,0.00,,,0.00,0,Custom,2013-10-06 06:31:00,
2013-10-06 01:36:00,42.3,39.0,29.78,NNW,343,0.0,0.0,87,0.00,,,0.00,0,Custom,2013-10-06 06:36:00,
2013-10-06 01:41:00,43.3,39.0,29.78,NNW,331,0.0,0.0,85,0.00,,,0.00,0,Custom,2013-10-06 06:41:00,
2013-10-06 01:46:00,43.3,38.0,29.78,NW,326,0.0,0.0,83,0.00,,,0.00,0,Custom,2013-10-06 06:46:00,
2013-10-06 01:51:00,43.3,38.0,29.78,NNW,327,0.0,0.0,82,0.00,,,0.00,0,Custom,2013-10-06 06:51:00,
2013-10-06 01:56:00,43.8,38.0,29.78,NW,323,0.0,0.0,81,0.00,,,0.00,0,Custom,2013-10-06 06:56:00,
2013-10-06 02:01:00,43.7,38.0,29.78,North,360,0.0,0.0,79,0.00,,,0.00,0,Custom,2013-10-06 07:01:00,
2013-10-06 02:06:00,43.9,38.0,29.78,North,360,0.0,0.0,79,0.00,,,0.00,0,Custom,2013-10-06 07:06:00,
2013-10-06 02:11:00,43.8,38.0,29.78,NW,318,0.0,0.0,79,0.00,,,0.00,0,Custom,2013-10-06 07:11:00,
2013-10-06 02:16:00,44.0,38.0,29.78,NNW,341,0.0,0.0,78,0.00,,,0.00,0,Custom,2013-10-06 07:16:00,
2013-10-06 02:21:00,44.3,37.0,29.78,NW,321,0.0,0.0,77,0.00,,,0.00,0,Custom,2013-10-06 07:21:00,
2013-10-06 02:26:00,44.6,38.0,29.78,NW,324,0.0,0.0,77,0.00,,,0.00,0,Custom,2013-10-06 07:26:00,
2013-10-06 02:31:00,44.6,37.0,29.77,NW,323,0.0,0.0,75,0.00,,,0.00,0,Custom,2013-10-06 07:31:00,
2013-10-06 02:36:00,44.8,37.0,29.76,NW,321,0.0,0.0,75,0.00,,,0.00,0,Custom,2013-10-06 07:36:00,
2013-10-06 02:41:00,45.0,37.0,29.76,NW,321,0.0,0.0,75,0.00,,,0.00,0,Custom,2013-10-06 07:41:00,
2013-10-06 02:46:00,45.0,37.0,29.76,NNW,342,0.0,0.0,74,0.00,,,0.00,0,Custom,2013-10-06 07:46:00,
2013-10-06 02:51:00,45.0,37.0,29.76,NNW,345,0.0,0.0,74,0.00,,,0.00,0,Custom,2013-10-06 07:51:00,
2013-10-06 02:56:00,44.9,37.0,29.76,West,273,0.0,0.0,73,0.00,,,0.00,0,Custom,2013-10-06 07:56:00,
2013-10-06 03:01:00,45.0,37.0,29.76,NNW,344,0.0,0.0,73,0.00,,,0.00,0,Custom,2013-10-06 08:01:00,
2013-10-06 03:06:00,44.8,37.0,29.76,NNW,342,0.0,0.0,74,0.00,,,0.00,0,Custom,2013-10-06 08:06:00,
2013-10-06 03:11:00,44.3,37.0,29.76,NNW,342,0.0,0.0,74,0.00,,,0.00,0,Custom,2013-10-06 08:11:00,
2013-10-06 03:16:00,43.5,36.0,29.76,NNW,342,0.0,0.0,76,0.00,,,0.00,0,Custom,2013-10-06 08:16:00,
2013-10-06 03:21:00,43.1,36.0,29.76,NNW,342,0.0,0.0,77,0.00,,,0.00,0,Custom,2013-10-06 08:21:00,
2013-10-06 03:26:00,43.0,37.0,29.76,NNW,342,0.0,0.0,78,0.00,,,0.00,0,Custom,2013-10-06 08:26:00,
2013-10-06 03:31:00,42.8,37.0,29.76,NNW,342,0.0,0.0,79,0.00,,,0.00,0,Custom,2013-10-06 08:31:00,
2013-10-06 03:36:00,42.4,37.0,29.76,NNW,342,0.0,0.0,79,0.00,,,0.00,0,Custom,2013-10-06 08:36:00,
2013-10-06 03:41:00,42.0,36.0,29.75,NNW,342,0.0,0.0,80,0.00,,,0.00,0,Custom,2013-10-06 08:41:00,
2013-10-06 03:46:00,41.9,37.0,29.74,NNW,342,0.0,0.0,81,0.00,,,0.00,0,Custom,2013-10-06 08:46:00,
2013-10-06 03:51:00,41.7,37.0,29.74,NNW,347,0.0,0.0,81,0.00,,,0.00,0,Custom,2013-10-06 08:51:00,
2013-10-06 03:56:00,41.7,37.0,29.74,NNW,344,0.0,0.0,81,0.00,,,0.00,0,Custom,2013-10-06 08:56:00,
2013-10-06 04:01:00,41.6,36.0,29.74,NW,316,0.0,0.0,82,0.00,,,0.00,0,Custom,2013-10-06 09:01:00,
2013-10-06 04:06:00,41.7,37.0,29.73,WNW,294,0.0,0.0,82,0.00,,,0.00,0,Custom,2013-10-06 09:06:00,
2013-10-06 04:11:00,41.7,37.0,29.72,WNW,294,0.0,0.0,82,0.00,,,0.00,0,Custom,2013-10-06 09:11:00,
2013-10-06 04:16:00,41.5,37.0,29.73,WNW,294,0.0,0.0,82,0.00,,,0.00,0,Custom,2013-10-06 09:16:00,
2013-10-06 04:18:00,41.3,36.0,29.73,WNW,294,0.0,0.0,82,0.00,,,0.00,0,Custom,2013-10-06 09:18:00,
2013-10-06 04:23:00,41.3,37.0,29.73,WNW,295,0.0,0.0,83,0.00,,,0.00,0,Custom,2013-10-06 09:23:00,
2013-10-06 04:28:00,41.4,37.0,29.73,WNW,296,0.0,0.0,83,0.00,,,0.00,0,Custom,2013-10-06 09:28:00,
2013-10-06 04:33:00,41.2,36.0,29.73,WNW,300,0.0,0.0,83,0.00,,,0.00,0,Custom,2013-10-06 09:33:00,
2013-10-06 04:38:00,41.4,37.0,29.73,WNW,301,0.0,0.0,83,0.00,,,0.00,0,Custom,2013-10-06 09:38:00,
2013-10-06 04:43:00,41.4,37.0,29.74,WNW,301,0.0,0.0,83,0.00,,,0.00,0,Custom,2013-10-06 09:43:00,
2013-10-06 04:48:00,41.4,37.0,29.74,NW,317,0.0,0.0,83,0.00,,,0.00,0,Custom,2013-10-06 09:48:00,
2013-10-06 04:53:00,41.2,37.0,29.74,WNW,298,0.0,0.0,83,0.00,,,0.00,0,Custom,2013-10-06 09:53:00,
2013-10-06 04:58:00,41.3,36.0,29.74,West,279,0.0,0.0,83,0.00,,,0.00,0,Custom,2013-10-06 09:58:00,
2013-10-06 05:03:00,41.3,37.0,29.74,West,279,0.0,0.0,83,0.00,,,0.00,0,Custom,2013-10-06 10:03:00,
2013-10-06 05:08:00,41.1,37.0,29.74,West,279,0.0,0.0,83,0.00,,,0.00,0,Custom,2013-10-06 10:08:00,
2013-10-06 05:13:00,41.1,37.0,29.74,WNW,297,0.0,0.0,83,0.00,,,0.00,0,Custom,2013-10-06 10:13:00,
2013-10-06 05:18:00,40.9,36.0,29.74,WNW,295,0.0,0.0,84,0.00,,,0.00,0,Custom,2013-10-06 10:18:00,
2013-10-06 05:23:00,41.0,37.0,29.74,WNW,295,0.0,0.0,84,0.00,,,0.00,0,Custom,2013-10-06 10:23:00,
2013-10-06 05:28:00,40.8,37.0,29.74,WNW,295,0.0,0.0,84,0.00,,,0.00,0,Custom,2013-10-06 10:28:00,
2013-10-06 05:33:00,40.7,37.0,29.74,NW,315,0.0,0.0,85,0.00,,,0.00,0,Custom,2013-10-06 10:33:00,
2013-10-06 05:38:00,40.5,36.0,29.74,WNW,295,0.0,0.0,85,0.00,,,0.00,0,Custom,2013-10-06 10:38:00,
2013-10-06 05:43:00,40.5,36.0,29.74,WNW,297,0.0,0.0,85,0.00,,,0.00,0,Custom,2013-10-06 10:43:00,
2013-10-06 05:48:00,40.4,36.0,29.74,NW,306,0.0,0.0,85,0.00,,,0.00,0,Custom,2013-10-06 10:48:00,
2013-10-06 05:53:00,40.6,37.0,29.74,WNW,298,0.0,0.0,86,0.00,,,0.00,0,Custom,2013-10-06 10:53:00,
2013-10-06 05:58:00,40.6,37.0,29.74,WNW,298,0.0,0.0,86,0.00,,,0.00,0,Custom,2013-10-06 10:58:00,
2013-10-06 06:03:00,40.5,37.0,29.75,WNW,299,0.0,0.0,86,0.00,,,0.00,0,Custom,2013-10-06 11:03:00,
2013-10-06 06:08:00,40.3,37.0,29.75,WNW,300,0.0,0.0,86,0.00,,,0.00,0,Custom,2013-10-06 11:08:00,
2013-10-06 06:13:00,39.8,36.0,29.75,NW,304,0.0,0.0,87,0.00,,,0.00,0,Custom,2013-10-06 11:13:00,
2013-10-06 06:18:00,40.4,37.0,29.75,NW,305,0.0,0.0,88,0.00,,,0.00,0,Custom,2013-10-06 11:18:00,
2013-10-06 06:23:00,40.7,37.0,29.75,NW,305,0.0,0.0,88,0.00,,,0.00,0,Custom,2013-10-06 11:23:00,
2013-10-06 06:28:00,40.9,37.0,29.75,NW,304,0.0,0.0,87,0.00,,,0.00,0,Custom,2013-10-06 11:28:00,
2013-10-06 06:33:00,40.3,37.0,29.75,NW,304,0.0,0.0,87,0.00,,,0.00,0,Custom,2013-10-06 11:33:00,
2013-10-06 06:38:00,40.0,36.0,29.75,NW,304,0.0,0.0,87,0.00,,,0.00,0,Custom,2013-10-06 11:38:00,
2013-10-06 06:43:00,39.6,36.0,29.76,WNW,303,0.0,0.0,87,0.00,,,0.00,0,Custom,2013-10-06 11:43:00,
2013-10-06 06:48:00,39.6,37.0,29.76,NW,304,0.0,0.0,89,0.00,,,0.00,0,Custom,2013-10-06 11:48:00,
2013-10-06 06:54:00,40.8,38.0,29.76,NW,313,0.0,0.0,89,0.00,,,0.00,0,Custom,2013-10-06 11:54:00,
2013-10-06 06:59:00,41.2,38.0,29.76,NW,311,0.0,0.0,89,0.00,,,0.00,0,Custom,2013-10-06 11:59:00,
2013-10-06 07:04:00,41.5,39.0,29.76,NW,313,0.0,0.0,89,0.00,,,0.00,0,Custom,2013-10-06 12:04:00,
2013-10-06 07:09:00,42.0,39.0,29.76,NW,305,0.0,0.0,88,0.00,,,0.00,0,Custom,2013-10-06 12:09:00,
2013-10-06 07:14:00,42.9,39.0,29.76,WNW,303,0.0,0.0,88,0.00,,,0.00,0,Custom,2013-10-06 12:14:00,
2013-10-06 07:19:00,43.7,40.0,29.76,WNW,300,0.0,0.0,86,0.00,,,0.00,0,Custom,2013-10-06 12:19:00,
2013-10-06 07:24:00,44.4,40.0,29.76,WNW,303,0.0,0.0,84,0.00,,,0.00,0,Custom,2013-10-06 12:24:00,
2013-10-06 07:29:00,44.8,40.0,29.76,WNW,302,0.0,0.0,82,0.00,,,0.00,0,Custom,2013-10-06 12:29:00,
2013-10-06 07:34:00,45.0,40.0,29.75,WNW,299,0.0,0.0,81,0.00,,,0.00,0,Custom,2013-10-06 12:34:00,
2013-10-06 07:39:00,45.5,40.0,29.75,WNW,299,0.0,0.0,81,0.00,,,0.00,10.92,Custom,2013-10-06 12:39:00,
2013-10-06 07:44:00,45.8,40.0,29.76,WNW,299,0.0,0.0,79,0.00,,,0.00,14.82,Custom,2013-10-06 12:44:00,
2013-10-06 07:49:00,45.9,40.0,29.76,NW,318,0.0,0.0,78,0.00,,,0.00,19.5,Custom,2013-10-06 12:49:00,
2013-10-06 07:54:00,46.2,40.0,29.76,NW,317,0.0,0.0,78,0.00,,,0.00,23.4,Custom,2013-10-06 12:54:00,
2013-10-06 07:59:00,46.3,40.0,29.76,WNW,301,0.0,0.0,77,0.00,,,0.00,31.98,Custom,2013-10-06 12:59:00,
2013-10-06 08:04:00,46.3,39.0,29.76,NW,321,0.0,0.0,76,0.00,,,0.00,28.47,Custom,2013-10-06 13:04:00,
2013-10-06 08:09:00,46.3,40.0,29.76,NW,305,0.0,0.0,77,0.00,,,0.00,63.18,Custom,2013-10-06 13:09:00,
2013-10-06 08:14:00,46.7,39.0,29.76,NW,305,0.0,0.0,77,0.00,,,0.00,46.8,Custom,2013-10-06 13:14:00,
2013-10-06 08:19:00,46.8,40.0,29.76,NW,304,0.0,0.0,76,0.00,,,0.00,53.43,Custom,2013-10-06 13:19:00,
2013-10-06 08:24:00,47.0,40.0,29.76,WNW,303,0.0,0.0,75,0.00,,,0.00,53.43,Custom,2013-10-06 13:24:00,
2013-10-06 08:29:00,47.2,40.0,29.76,NNW,332,0.0,0.0,75,0.00,,,0.00,71.76,Custom,2013-10-06 13:29:00,
2013-10-06 08:34:00,47.2,40.0,29.76,NNW,333,0.0,0.0,75,0.00,,,0.00,75.27,Custom,2013-10-06 13:34:00,
2013-10-06 08:39:00,47.3,40.0,29.76,NNW,332,0.0,0.0,75,0.00,,,0.00,41.73,Custom,2013-10-06 13:39:00,
2013-10-06 08:44:00,49.3,40.0,29.76,NNW,333,0.0,0.0,69,0.00,,,0.00,164.19,Custom,2013-10-06 13:44:00,
2013-10-06 08:49:00,50.3,40.0,29.76,NNW,333,0.0,0.0,67,0.00,,,0.00,142.35,Custom,2013-10-06 13:49:00,
2013-10-06 08:54:00,50.3,39.0,29.76,NNW,333,0.0,0.0,66,0.00,,,0.00,162.63,Custom,2013-10-06 13:54:00,
2013-10-06 08:59:00,50.4,39.0,29.76,West,279,0.0,0.0,66,0.00,,,0.00,238.68,Custom,2013-10-06 13:59:00,
2013-10-06 09:04:00,51.2,40.0,29.76,NNW,329,0.0,0.0,64,0.00,,,0.00,256.23,Custom,2013-10-06 14:04:00,
2013-10-06 09:09:00,50.5,39.0,29.76,North,356,0.0,0.0,64,0.00,,,0.00,84.24,Custom,2013-10-06 14:09:00,
2013-10-06 09:14:00,50.6,40.0,29.76,NNW,335,0.0,0.0,66,0.00,,,0.00,92.82,Custom,2013-10-06 14:14:00,
2013-10-06 09:19:00,50.9,41.0,29.76,NNW,338,0.0,0.0,68,0.00,,,0.00,55.38,Custom,2013-10-06 14:19:00,
2013-10-06 09:24:00,50.6,40.0,29.77,NNW,336,0.0,0.0,67,0.00,,,0.00,123.24,Custom,2013-10-06 14:24:00,
2013-10-06 09:29:00,51.5,40.0,29.76,NNW,345,0.0,0.0,66,0.00,,,0.00,333.84,Custom,2013-10-06 14:29:00,
2013-10-06 09:34:00,51.9,40.0,29.76,NNW,327,0.0,0.0,65,0.00,,,0.00,416.91,Custom,2013-10-06 14:34:00,
2013-10-06 09:39:00,52.9,40.0,29.76,NNW,328,0.0,0.0,62,0.00,,,0.00,124.41,Custom,2013-10-06 14:39:00,
2013-10-06 09:44:00,52.1,40.0,29.76,NNW,328,0.0,0.0,62,0.00,,,0.00,96.72,Custom,2013-10-06 14:44:00,
2013-10-06 09:49:00,52.2,41.0,29.76,NNW,334,0.0,0.0,64,0.00,,,0.00,213.33,Custom,2013-10-06 14:49:00,
2013-10-06 09:54:00,51.8,40.0,29.77,NNW,327,0.0,0.0,65,0.00,,,0.00,240.24,Custom,2013-10-06 14:54:00,
2013-10-06 09:59:00,51.5,40.0,29.77,NNW,348,0.0,0.0,66,0.00,,,0.00,165.75,Custom,2013-10-06 14:59:00,
2013-10-06 10:04:00,51.9,42.0,29.77,NNW,348,0.0,0.0,68,0.00,,,0.00,416.91,Custom,2013-10-06 15:04:00,
2013-10-06 10:09:00,53.3,41.0,29.77,NNW,348,0.0,0.0,63,0.00,,,0.00,413.4,Custom,2013-10-06 15:09:00,
2013-10-06 10:14:00,53.8,41.0,29.77,NNW,332,0.0,0.0,61,0.00,,,0.00,405.21,Custom,2013-10-06 15:14:00,
2013-10-06 10:19:00,53.8,42.0,29.78,NNW,331,0.0,0.0,64,0.00,,,0.00,273.39,Custom,2013-10-06 15:19:00,
2013-10-06 10:24:00,53.7,42.0,29.78,NNW,346,0.0,0.0,63,0.00,,,0.00,191.1,Custom,2013-10-06 15:24:00,
2013-10-06 10:29:00,53.8,41.0,29.78,NNW,327,0.0,0.0,61,0.00,,,0.00,285.48,Custom,2013-10-06 15:29:00,
2013-10-06 10:34:00,54.3,41.0,29.78,NNW,329,0.0,0.0,62,0.00,,,0.00,200.46,Custom,2013-10-06 15:34:00,
2013-10-06 10:39:00,54.5,42.0,29.78,NNW,330,0.0,0.0,63,0.00,,,0.00,226.2,Custom,2013-10-06 15:39:00,
2013-10-06 10:44:00,53.9,41.0,29.79,NNW,340,0.0,0.0,63,0.00,,,0.00,245.7,Custom,2013-10-06 15:44:00,
2013-10-06 10:49:00,53.0,41.0,29.79,NNW,327,0.0,0.0,63,0.00,,,0.00,218.4,Custom,2013-10-06 15:49:00,
2013-10-06 10:54:00,54.3,42.0,29.79,NNW,330,0.0,0.0,64,0.00,,,0.00,243.36,Custom,2013-10-06 15:54:00,
2013-10-06 10:59:00,55.8,43.0,29.78,NW,311,0.0,0.0,62,0.00,,,0.00,449.28,Custom,2013-10-06 15:59:00,
2013-10-06 11:04:00,56.2,43.0,29.78,NW,321,0.0,0.0,60,0.00,,,0.00,547.95,Custom,2013-10-06 16:04:00,
2013-10-06 11:09:00,55.3,42.0,29.79,NNW,328,0.0,0.0,60,0.00,,,0.00,539.76,Custom,2013-10-06 16:09:00,
2013-10-06 11:14:00,55.2,42.0,29.79,NNW,332,0.0,0.0,60,0.00,,,0.00,263.64,Custom,2013-10-06 16:14:00,
2013-10-06 11:19:00,56.2,43.0,29.79,NNW,329,0.0,0.0,61,0.00,,,0.00,234.78,Custom,2013-10-06 16:19:00,
2013-10-06 11:24:00,55.8,42.0,29.80,NW,319,0.0,0.0,59,0.00,,,0.00,237.12,Custom,2013-10-06 16:24:00,
2013-10-06 11:29:00,55.1,41.0,29.80,NNW,327,0.0,0.0,59,0.00,,,0.00,237.12,Custom,2013-10-06 16:29:00,
2013-10-06 11:34:00,54.5,42.0,29.80,NNW,344,0.0,0.0,62,0.00,,,0.00,492.57,Custom,2013-10-06 16:34:00,
2013-10-06 11:39:00,55.9,43.0,29.79,NNW,344,0.0,0.0,62,0.00,,,0.00,316.29,Custom,2013-10-06 16:39:00,
2013-10-06 11:44:00,54.9,41.0,29.80,NW,323,0.0,0.0,59,0.00,,,0.00,248.82,Custom,2013-10-06 16:44:00,
2013-10-06 11:49:00,55.1,42.0,29.80,NNW,341,0.0,0.0,61,0.00,,,0.00,234.39,Custom,2013-10-06 16:49:00,
2013-10-06 11:54:00,55.1,42.0,29.80,NW,308,0.0,0.0,61,0.00,,,0.00,268.32,Custom,2013-10-06 16:54:00,
2013-10-06 11:59:00,57.6,44.0,29.80,NW,325,0.0,0.0,59,0.00,,,0.00,551.85,Custom,2013-10-06 16:59:00,
2013-10-06 12:04:00,56.8,41.0,29.80,NW,314,0.0,0.0,56,0.00,,,0.00,239.07,Custom,2013-10-06 17:04:00,
2013-10-06 12:10:00,56.5,44.0,29.79,NW,316,0.0,0.0,63,0.00,,,0.00,553.02,Custom,2013-10-06 17:10:00,
2013-10-06 12:15:00,57.5,43.0,29.80,WNW,302,0.0,0.0,57,0.00,,,0.00,507,Custom,2013-10-06 17:15:00,
2013-10-06 12:20:00,55.9,42.0,29.79,SW,222,0.0,0.0,59,0.00,,,0.00,540.93,Custom,2013-10-06 17:20:00,
2013-10-06 12:25:00,58.1,44.0,29.80,NW,305,0.0,0.0,60,0.00,,,0.00,294.84,Custom,2013-10-06 17:25:00,
2013-10-06 12:30:00,59.7,44.0,29.80,NW,305,0.0,0.0,57,0.00,,,0.00,475.41,Custom,2013-10-06 17:30:00,
2013-10-06 12:35:00,60.1,44.0,29.80,West,280,0.0,0.0,55,0.00,,,0.00,291.33,Custom,2013-10-06 17:35:00,
2013-10-06 12:40:00,58.4,43.0,29.80,North,360,0.0,0.0,57,0.00,,,0.00,278.85,Custom,2013-10-06 17:40:00,
2013-10-06 12:45:00,58.9,43.0,29.79,North,360,0.0,0.0,56,0.00,,,0.00,265.59,Custom,2013-10-06 17:45:00,
2013-10-06 12:50:00,58.6,43.0,29.80,NNW,330,0.0,0.0,55,0.00,,,0.00,299.91,Custom,2013-10-06 17:50:00,
2013-10-06 12:55:00,57.7,42.0,29.80,WNW,290,0.0,0.0,57,0.00,,,0.00,193.44,Custom,2013-10-06 17:55:00,
2013-10-06 13:00:00,57.7,43.0,29.79,WNW,294,0.0,0.0,58,0.00,,,0.00,582.27,Custom,2013-10-06 18:00:00,
2013-10-06 13:05:00,61.6,46.0,29.79,WNW,302,0.0,0.0,56,0.00,,,0.00,556.14,Custom,2013-10-06 18:05:00,
2013-10-06 13:10:00,59.5,42.0,29.80,NNW,337,0.0,0.0,53,0.00,,,0.00,136.11,Custom,2013-10-06 18:10:00,
2013-10-06 13:15:00,58.0,42.0,29.80,NW,323,0.0,0.0,55,0.00,,,0.00,230.88,Custom,2013-10-06 18:15:00,
2013-10-06 13:20:00,59.7,44.0,29.79,NW,324,0.0,0.0,57,0.00,,,0.00,575.25,Custom,2013-10-06 18:20:00,
2013-10-06 13:25:00,61.1,44.0,29.79,WNW,287,0.0,0.0,54,0.00,,,0.00,295.23,Custom,2013-10-06 18:25:00,
2013-10-06 13:30:00,62.0,45.0,29.79,North,349,0.0,0.0,54,0.00,,,0.00,586.17,Custom,2013-10-06 18:30:00,
2013-10-06 13:35:00,62.6,45.0,29.79,NNW,335,0.0,0.0,52,0.00,,,0.00,252.33,Custom,2013-10-06 18:35:00,
2013-10-06 13:40:00,61.1,44.0,29.78,NNW,328,0.0,0.0,53,0.00,,,0.00,560.82,Custom,2013-10-06 18:40:00,
2013-10-06 13:45:00,63.3,45.0,29.78,West,276,0.0,0.0,52,0.00,,,0.00,565.5,Custom,2013-10-06 18:45:00,
2013-10-06 13:50:00,64.2,45.0,29.78,NW,310,0.0,0.0,49,0.00,,,0.00,574.08,Custom,2013-10-06 18:50:00,
2013-10-06 13:55:00,62.2,44.0,29.78,NW,312,0.0,0.0,51,0.00,,,0.00,252.33,Custom,2013-10-06 18:55:00,
2013-10-06 14:00:00,60.3,43.0,29.78,NW,318,0.0,0.0,53,0.00,,,0.00,176.28,Custom,2013-10-06 19:00:00,
2013-10-06 14:05:00,60.1,44.0,29.77,NW,318,0.0,0.0,55,0.00,,,0.00,565.5,Custom,2013-10-06 19:05:00,
2013-10-06 14:10:00,63.0,46.0,29.76,NW,316,0.0,0.0,53,0.00,,,0.00,580.32,Custom,2013-10-06 19:10:00,
2013-10-06 14:15:00,63.5,44.0,29.76,NW,320,0.0,0.0,49,0.00,,,0.00,437.58,Custom,2013-10-06 19:15:00,
2013-10-06 14:20:00,63.4,45.0,29.77,NW,322,0.0,0.0,50,0.00,,,0.00,172.38,Custom,2013-10-06 19:20:00,
2013-10-06 14:25:00,63.6,46.0,29.76,NW,324,0.0,0.0,52,0.00,,,0.00,581.1,Custom,2013-10-06 19:25:00,
2013-10-06 14:30:00,62.4,44.0,29.76,NNW,340,0.0,0.0,50,0.00,,,0.00,202.41,Custom,2013-10-06 19:30:00,
2013-10-06 14:35:00,61.1,43.0,29.76,NNW,334,0.0,0.0,50,0.00,,,0.00,124.8,Custom,2013-10-06 19:35:00,
2013-10-06 14:40:00,60.0,43.0,29.77,NNW,328,0.0,0.0,53,0.00,,,0.00,117,Custom,2013-10-06 19:40:00,
2013-10-06 14:45:00,62.0,45.0,29.77,NNW,330,0.0,0.0,54,0.00,,,0.00,106.47,Custom,2013-10-06 19:45:00,
2013-10-06 14:50:00,60.2,43.0,29.76,NNW,337,0.0,0.0,53,0.00,,,0.00,117,Custom,2013-10-06 19:50:00,
2013-10-06 14:55:00,61.7,44.0,29.77,NNW,328,0.0,0.0,52,0.00,,,0.00,253.89,Custom,2013-10-06 19:55:00,
2013-10-06 15:00:00,61.7,45.0,29.76,NNW,328,0.0,0.0,55,0.00,,,0.00,332.67,Custom,2013-10-06 20:00:00,
2013-10-06 15:05:00,63.1,45.0,29.76,NW,304,0.0,0.0,51,0.00,,,0.00,564.33,Custom,2013-10-06 20:05:00,
2013-10-06 15:10:00,63.4,44.0,29.76,WNW,297,0.0,0.0,50,0.00,,,0.00,384.15,Custom,2013-10-06 20:10:00,
2013-10-06 15:15:00,62.7,44.0,29.76,WNW,303,0.0,0.0,51,0.00,,,0.00,330.33,Custom,2013-10-06 20:15:00,
2013-10-06 15:20:00,62.7,46.0,29.76,WNW,300,0.0,0.0,55,0.00,,,0.00,548.34,Custom,2013-10-06 20:20:00,
2013-10-06 15:25:00,64.7,46.0,29.76,NW,321,0.0,0.0,51,0.00,,,0.00,603.72,Custom,2013-10-06 20:25:00,
2013-10-06 15:43:00,63.3,45.0,29.75,West,268,0.0,0.0,51,0.00,,,0.00,511.68,Custom,2013-10-06 20:43:00,
2013-10-06 15:48:00,66.1,47.0,29.76,West,276,0.0,0.0,50,0.00,,,0.00,155.22,Custom,2013-10-06 20:48:00,
2013-10-06 15:53:00,62.5,44.0,29.75,WSW,249,0.0,0.0,50,0.00,,,0.00,163.41,Custom,2013-10-06 20:53:00,
2013-10-06 15:58:00,64.5,45.0,29.75,NNW,327,0.0,0.0,50,0.00,,,0.00,157.95,Custom,2013-10-06 20:58:00,
2013-10-06 16:03:00,65.3,46.0,29.75,NNW,335,0.0,0.0,49,0.00,,,0.00,553.8,Custom,2013-10-06 21:03:00,
2013-10-06 16:08:00,64.1,45.0,29.75,NNW,330,0.0,0.0,50,0.00,,,0.00,248.82,Custom,2013-10-06 21:08:00,
2013-10-06 16:13:00,65.6,46.0,29.75,WNW,303,0.0,0.0,49,0.00,,,0.00,512.07,Custom,2013-10-06 21:13:00,
2013-10-06 16:18:00,67.2,47.0,29.75,NW,323,0.0,0.0,48,0.00,,,0.00,580.71,Custom,2013-10-06 21:18:00,
2013-10-06 16:23:00,67.4,47.0,29.76,West,280,0.0,0.0,48,0.00,,,0.00,574.08,Custom,2013-10-06 21:23:00,
2013-10-06 16:28:00,65.0,45.0,29.76,NNW,330,0.0,0.0,48,0.00,,,0.00,183.69,Custom,2013-10-06 21:28:00,
2013-10-06 16:33:00,63.8,45.0,29.76,NW,322,0.0,0.0,50,0.00,,,0.00,483.21,Custom,2013-10-06 21:33:00,
2013-10-06 16:38:00,63.5,45.0,29.76,NW,325,0.0,0.0,51,0.00,,,0.00,168.87,Custom,2013-10-06 21:38:00,
2013-10-06 16:43:00,62.2,45.0,29.76,NNW,327,0.0,0.0,54,0.00,,,0.00,83.46,Custom,2013-10-06 21:43:00,
2013-10-06 16:48:00,61.2,45.0,29.76,NW,324,0.0,0.0,55,0.00,,,0.00,90.87,Custom,2013-10-06 21:48:00,
2013-10-06 16:53:00,60.8,46.0,29.77,NNW,329,0.0,0.0,57,0.00,,,0.00,41.73,Custom,2013-10-06 21:53:00,
2013-10-06 16:58:00,60.3,46.0,29.77,NNW,329,0.0,0.0,59,0.00,,,0.00,34.32,Custom,2013-10-06 21:58:00,
2013-10-06 17:03:00,60.2,46.0,29.76,NNW,339,0.0,0.0,58,0.00,,,0.00,38.61,Custom,2013-10-06 22:03:00,
2013-10-06 17:08:00,60.0,46.0,29.77,NNW,340,0.0,0.0,59,0.00,,,0.00,33.93,Custom,2013-10-06 22:08:00,
2013-10-06 17:13:00,59.9,46.0,29.77,NNW,328,0.0,0.0,60,0.00,,,0.00,28.86,Custom,2013-10-06 22:13:00,
2013-10-06 17:18:00,59.7,46.0,29.78,NW,318,0.0,0.0,61,0.00,,,0.00,40.95,Custom,2013-10-06 22:18:00,
2013-10-06 17:23:00,59.7,46.0,29.78,NW,309,0.0,0.0,61,0.00,,,0.00,37.44,Custom,2013-10-06 22:23:00,
2013-10-06 17:28:00,59.5,46.0,29.78,NNW,328,0.0,0.0,61,0.00,,,0.00,32.76,Custom,2013-10-06 22:28:00,
2013-10-06 17:33:00,59.4,46.0,29.78,NNW,328,0.0,0.0,61,0.00,,,0.00,30.42,Custom,2013-10-06 22:33:00,
2013-10-06 17:38:00,59.3,46.0,29.77,NNW,332,0.0,0.0,61,0.00,,,0.00,23.79,Custom,2013-10-06 22:38:00,
2013-10-06 17:43:00,59.1,46.0,29.76,NW,324,0.0,0.0,62,0.00,,,0.00,17.55,Custom,2013-10-06 22:43:00,
2013-10-06 17:48:00,59.0,46.0,29.77,NW,324,0.0,0.0,62,0.00,,,0.00,31.59,Custom,2013-10-06 22:48:00,
2013-10-06 17:53:00,59.1,46.0,29.77,NNW,328,0.0,0.0,62,0.00,,,0.00,34.71,Custom,2013-10-06 22:53:00,
2013-10-06 17:58:00,59.0,46.0,29.78,NNW,327,0.0,0.0,62,0.00,,,0.00,13.65,Custom,2013-10-06 22:58:00,
2013-10-06 18:03:00,58.8,46.0,29.77,NNW,327,0.0,0.0,63,0.00,,,0.00,21.06,Custom,2013-10-06 23:03:00,
2013-10-06 18:08:00,58.8,47.0,29.78,NNW,334,0.0,0.0,64,0.00,,,0.00,20.28,Custom,2013-10-06 23:08:00,
2013-10-06 18:13:00,58.8,46.0,29.78,NNW,335,0.0,0.0,63,0.00,,,0.00,17.16,Custom,2013-10-06 23:13:00,
2013-10-06 18:18:00,58.8,46.0,29.78,NW,325,0.0,0.0,63,0.00,,,0.00,14.82,Custom,2013-10-06 23:18:00,
2013-10-06 18:23:00,58.6,46.0,29.78,NW,325,0.0,0.0,64,0.00,,,0.00,10.92,Custom,2013-10-06 23:23:00,
2013-10-06 18:28:00,58.5,47.0,29.79,NW,325,0.0,0.0,65,0.00,,,0.00,10.14,Custom,2013-10-06 23:28:00,
2013-10-06 18:33:00,58.3,46.0,29.79,NW,325,0.0,0.0,64,0.00,,,0.00,8.19,Custom,2013-10-06 23:33:00,
2013-10-06 18:38:00,58.3,46.0,29.79,NW,325,0.0,0.0,65,0.00,,,0.00,0,Custom,2013-10-06 23:38:00,
2013-10-06 18:43:00,58.3,46.0,29.79,NW,320,0.0,0.0,65,0.00,,,0.00,0,Custom,2013-10-06 23:43:00,
2013-10-06 18:48:00,58.2,46.0,29.80,SSW,192,0.0,0.0,65,0.00,,,0.00,0,Custom,2013-10-06 23:48:00,
2013-10-06 18:53:00,58.1,47.0,29.80,North,351,0.0,0.0,65,0.00,,,0.00,0,Custom,2013-10-06 23:53:00,
2013-10-06 18:58:00,57.9,46.0,29.80,North,354,0.0,0.0,66,0.00,,,0.00,0,Custom,2013-10-06 23:58:00,
2013-10-06 19:03:00,57.6,46.0,29.80,SSW,202,0.0,0.0,66,0.00,,,0.00,0,Custom,2013-10-07 00:03:00,
2013-10-06 19:08:00,57.3,46.0,29.80,SSW,198,0.0,0.0,66,0.00,,,0.00,0,Custom,2013-10-07 00:08:00,
2013-10-06 19:13:00,57.3,46.0,29.80,NW,326,0.0,0.0,66,0.00,,,0.00,0,Custom,2013-10-07 00:13:00,
2013-10-06 19:18:00,57.3,46.0,29.81,NNW,337,0.0,0.0,66,0.00,,,0.00,0,Custom,2013-10-07 00:18:00,
2013-10-06 19:24:00,57.2,46.0,29.81,NW,318,0.0,0.0,67,0.00,,,0.00,0,Custom,2013-10-07 00:24:00,
2013-10-06 19:29:00,57.2,46.0,29.81,NW,319,0.0,0.0,67,0.00,,,0.00,0,Custom,2013-10-07 00:29:00,
2013-10-06 19:34:00,57.0,46.0,29.81,NNW,327,0.0,0.0,66,0.00,,,0.00,0,Custom,2013-10-07 00:34:00,
2013-10-06 19:39:00,56.7,45.0,29.81,NW,314,0.0,0.0,66,0.00,,,0.00,0,Custom,2013-10-07 00:39:00,
2013-10-06 19:44:00,56.3,45.0,29.82,NNW,337,0.0,0.0,67,0.00,,,0.00,0,Custom,2013-10-07 00:44:00,
2013-10-06 19:49:00,56.3,46.0,29.82,SSW,211,0.0,0.0,67,0.00,,,0.00,0,Custom,2013-10-07 00:49:00,
2013-10-06 19:54:00,56.3,46.0,29.82,North,359,0.0,0.0,67,0.00,,,0.00,0,Custom,2013-10-07 00:54:00,
2013-10-06 19:59:00,56.3,46.0,29.83,SSW,203,0.0,0.0,67,0.00,,,0.00,0,Custom,2013-10-07 00:59:00,
2013-10-06 20:04:00,56.3,46.0,29.83,South,189,0.0,0.0,67,0.00,,,0.00,0,Custom,2013-10-07 01:04:00,
2013-10-06 20:09:00,56.3,46.0,29.83,South,189,0.0,0.0,68,0.00,,,0.00,0,Custom,2013-10-07 01:09:00,
2013-10-06 20:14:00,56.2,46.0,29.84,North,360,0.0,0.0,68,0.00,,,0.00,0,Custom,2013-10-07 01:14:00,
2013-10-06 20:19:00,56.1,46.0,29.83,WSW,245,0.0,0.0,68,0.00,,,0.00,0,Custom,2013-10-07 01:19:00,
2013-10-06 20:24:00,55.9,46.0,29.84,WSW,247,0.0,0.0,68,0.00,,,0.00,0,Custom,2013-10-07 01:24:00,
2013-10-06 20:29:00,55.8,45.0,29.84,North,349,0.0,0.0,68,0.00,,,0.00,0,Custom,2013-10-07 01:29:00,
2013-10-06 20:34:00,55.8,46.0,29.84,SSW,212,0.0,0.0,69,0.00,,,0.00,0,Custom,2013-10-07 01:34:00,
2013-10-06 20:39:00,55.7,46.0,29.84,North,349,0.0,0.0,69,0.00,,,0.00,0,Custom,2013-10-07 01:39:00,
2013-10-06 20:44:00,55.6,46.0,29.84,North,357,0.0,0.0,70,0.00,,,0.00,0,Custom,2013-10-07 01:44:00,
2013-10-06 20:49:00,55.5,46.0,29.85,South,191,0.0,0.0,70,0.00,,,0.00,0,Custom,2013-10-07 01:49:00,
2013-10-06 20:54:00,55.4,46.0,29.84,NW,325,0.0,0.0,70,0.00,,,0.00,0,Custom,2013-10-07 01:54:00,
2013-10-06 20:59:00,55.4,46.0,29.85,South,189,0.0,0.0,70,0.00,,,0.00,0,Custom,2013-10-07 01:59:00,
2013-10-06 21:04:00,55.3,46.0,29.85,North,360,0.0,0.0,70,0.00,,,0.00,0,Custom,2013-10-07 02:04:00,
2013-10-06 21:09:00,55.2,46.0,29.85,SSW,192,0.0,0.0,71,0.00,,,0.00,0,Custom,2013-10-07 02:09:00,
2013-10-06 21:14:00,55.1,46.0,29.85,NNW,347,0.0,0.0,71,0.00,,,0.00,0,Custom,2013-10-07 02:14:00,
2013-10-06 21:19:00,55.0,46.0,29.85,North,359,0.0,0.0,71,0.00,,,0.00,0,Custom,2013-10-07 02:19:00,
2013-10-06 21:24:00,54.8,46.0,29.85,SSW,197,0.0,0.0,71,0.00,,,0.00,0,Custom,2013-10-07 02:24:00,
2013-10-06 21:29:00,54.8,45.0,29.85,WNW,292,0.0,0.0,71,0.00,,,0.00,0,Custom,2013-10-07 02:29:00,
2013-10-06 21:34:00,54.7,46.0,29.85,SSW,193,0.0,0.0,71,0.00,,,0.00,0,Custom,2013-10-07 02:34:00,
2013-10-06 21:39:00,54.7,46.0,29.85,SSW,195,0.0,0.0,72,0.00,,,0.00,0,Custom,2013-10-07 02:39:00,
2013-10-06 21:44:00,54.6,46.0,29.86,SSW,196,0.0,0.0,72,0.00,,,0.00,0,Custom,2013-10-07 02:44:00,
2013-10-06 21:49:00,54.6,46.0,29.86,SSW,200,0.0,0.0,72,0.00,,,0.00,0,Custom,2013-10-07 02:49:00,
2013-10-06 21:54:00,54.6,46.0,29.86,North,358,0.0,0.0,72,0.00,,,0.00,0,Custom,2013-10-07 02:54:00,
2013-10-06 21:59:00,54.6,46.0,29.85,SW,225,0.0,0.0,72,0.00,,,0.00,0,Custom,2013-10-07 02:59:00,
2013-10-06 22:04:00,54.7,46.0,29.86,WSW,246,0.0,0.0,73,0.00,,,0.00,0,Custom,2013-10-07 03:04:00,
2013-10-06 22:09:00,54.2,46.0,29.85,SW,217,0.0,0.0,73,0.00,,,0.00,0,Custom,2013-10-07 03:09:00,
2013-10-06 22:14:00,53.6,45.0,29.86,North,359,0.0,0.0,74,0.00,,,0.00,0,Custom,2013-10-07 03:14:00,
2013-10-06 22:19:00,53.5,46.0,29.86,North,358,0.0,0.0,75,0.00,,,0.00,0,Custom,2013-10-07 03:19:00,
2013-10-06 22:24:00,53.2,46.0,29.87,SSW,202,0.0,0.0,75,0.00,,,0.00,0,Custom,2013-10-07 03:24:00,
2013-10-06 22:29:00,53.1,45.0,29.87,SSW,205,0.0,0.0,75,0.00,,,0.00,0,Custom,2013-10-07 03:29:00,
2013-10-06 22:34:00,52.6,45.0,29.88,SSW,205,0.0,0.0,76,0.00,,,0.00,0,Custom,2013-10-07 03:34:00,
2013-10-06 22:39:00,52.1,45.0,29.88,SSW,207,0.0,0.0,77,0.00,,,0.00,0,Custom,2013-10-07 03:39:00,
2013-10-06 22:44:00,51.9,45.0,29.88,WSW,245,0.0,0.0,77,0.00,,,0.00,0,Custom,2013-10-07 03:44:00,
2013-10-06 22:49:00,51.6,45.0,29.87,SSW,207,0.0,0.0,78,0.00,,,0.00,0,Custom,2013-10-07 03:49:00,
2013-10-06 22:54:00,51.3,45.0,29.88,WSW,246,0.0,0.0,79,0.00,,,0.00,0,Custom,2013-10-07 03:54:00,
2013-10-06 22:59:00,51.1,45.0,29.88,SW,216,0.0,0.0,79,0.00,,,0.00,0,Custom,2013-10-07 03:59:00,
2013-10-06 23:01:00,50.9,45.0,29.87,SW,217,0.0,0.0,79,0.00,,,0.00,0,Custom,2013-10-07 04:01:00,
2013-10-06 23:02:00,50.9,45.0,29.87,SW,217,0.0,0.0,79,0.00,,,0.00,0,Custom,2013-10-07 04:02:00,
2013-10-06 23:04:00,50.9,45.0,29.88,SW,217,0.0,0.0,80,0.00,,,0.00,0,Custom,2013-10-07 04:04:00,
2013-10-06 23:06:00,50.7,45.0,29.87,SW,222,0.0,0.0,80,0.00,,,0.00,0,Custom,2013-10-07 04:06:00,
2013-10-06 23:11:00,50.3,45.0,29.88,SW,228,0.0,0.0,80,0.00,,,0.00,0,Custom,2013-10-07 04:11:00,
2013-10-06 23:16:00,50.0,45.0,29.88,SW,226,0.0,0.0,81,0.00,,,0.00,0,Custom,2013-10-07 04:16:00,
2013-10-06 23:21:00,49.5,44.0,29.88,SW,233,0.0,0.0,82,0.00,,,0.00,0,Custom,2013-10-07 04:21:00,
2013-10-06 23:26:00,49.2,44.0,29.87,WSW,253,0.0,0.0,84,0.00,,,0.00,0,Custom,2013-10-07 04:26:00,
2013-10-06 23:31:00,48.6,44.0,29.88,WSW,242,0.0,0.0,84,0.00,,,0.00,0,Custom,2013-10-07 04:31:00,
2013-10-06 23:36:00,48.1,44.0,29.88,WSW,243,0.0,0.0,84,0.00,,,0.00,0,Custom,2013-10-07 04:36:00,
2013-10-06 23:41:00,47.5,44.0,29.88,SW,232,0.0,0.0,86,0.00,,,0.00,0,Custom,2013-10-07 04:41:00,
2013-10-06 23:46:00,47.3,43.0,29.88,SW,230,0.0,0.0,86,0.00,,,0.00,0,Custom,2013-10-07 04:46:00,
2013-10-06 23:51:00,46.8,43.0,29.88,SW,235,0.0,0.0,88,0.00,,,0.00,0,Custom,2013-10-07 04:51:00,
2013-10-06 23:56:00,46.5,43.0,29.88,WSW,255,0.0,0.0,88,0.00,,,0.00,0,Custom,2013-10-07 04:56:00,